This is the latest recevied weather packets stored in our database for station/object KE8KMM. If no packets are shown the sender has not sent any weather packets the latest 10 day(s).
| Time | Temp. | Humidity | Pressure | Rain* | Wind** | Luminosity | Snow |
|---|---|---|---|---|---|---|---|
| 1777315207 | 24.44° C | 53% | 1015.5 hPa | 0 mm | - | 532 W/m² | - |
| 1777314903 | 24.44° C | 53% | 1015.5 hPa | 0 mm | - | 545 W/m² | - |
| 1777314599 | 23.89° C | 58% | 1015.9 hPa | 0 mm | - | 608 W/m² | - |
| 1777314296 | 23.89° C | 54% | 1015.9 hPa | 0 mm | - | 613 W/m² | - |
| 1777313993 | 23.89° C | 55% | 1016.3 hPa | 0 mm | - | 618 W/m² | - |
| 1777313690 | 23.33° C | 53% | 1016.4 hPa | 0 mm | - | 642 W/m² | - |
| 1777313388 | 23.33° C | 56% | 1016.5 hPa | 0 mm | - | 661 W/m² | - |
| 1777313084 | 23.33° C | 57% | 1016.9 hPa | 0 mm | - | 677 W/m² | - |
| 1777312780 | 23.89° C | 58% | 1016.7 hPa | 0 mm | - | 693 W/m² | - |
| 1777312477 | 23.33° C | 60% | 1016.7 hPa | 0 mm | - | 672 W/m² | - |
| 1777312175 | 23.33° C | 57% | 1016.9 hPa | 0 mm | - | 732 W/m² | - |
| 1777311872 | 22.78° C | 58% | 1016.7 hPa | 0 mm | - | 675 W/m² | - |
| 1777311569 | 22.78° C | 61% | 1016.8 hPa | 0 mm | - | 653 W/m² | - |
| 1777311266 | 22.78° C | 61% | 1016.9 hPa | 0 mm | - | 569 W/m² | - |
| 1777310964 | 22.22° C | 60% | 1016.9 hPa | 0 mm | - | 631 W/m² | - |
| 1777310662 | 22.22° C | 60% | 1017 hPa | 0 mm | - | 652 W/m² | - |
| 1777310359 | 22.78° C | 61% | 1017.1 hPa | 0 mm | - | 628 W/m² | - |
| 1777310055 | 21.67° C | 63% | 1017.1 hPa | 0 mm | - | 613 W/m² | - |
| 1777309754 | 21.67° C | 65% | 1017.2 hPa | 0 mm | - | 622 W/m² | - |
| 1777309451 | 22.22° C | 61% | 1017.3 hPa | 0 mm | - | 629 W/m² | - |
| 1777309148 | 21.67° C | 61% | 1017 hPa | 0 mm | - | 545 W/m² | - |
| 1777308846 | 21.67° C | 63% | 1017.6 hPa | 0 mm | - | 583 W/m² | - |
| 1777308541 | 22.22° C | 61% | 1017.4 hPa | 0 mm | - | 683 W/m² | - |
| 1777308237 | 21.67° C | 67% | 1017.2 hPa | 0 mm | - | 525 W/m² | - |
| 1777307932 | 21.67° C | 65% | 1017.3 hPa | 0 mm | - | 636 W/m² | - |
* Rain latest hour (hover to see other rain measurements)
** Current wind speed in m/s (hover to see current wind gust speed)